Printer-friendly version

IAU Minor Planet Center

Minor Planet Center

MPEC 2004-B17 : 2004 BH11

The following Minor Planet Electronic Circular may be linked-to from your own Web pages, but must not otherwise be redistributed electronically.


Read MPEC 2004-B16 Read MPEC 2004-B18


M.P.E.C. 2004-B17                                Issued 2004 Jan. 19, 11:22 UT

     The Minor Planet Electronic Circulars contain information on unusual
         minor planets and routine data on comets.  They are published
   on behalf of Commission 20 of the International Astronomical Union by the
          Minor Planet Center, Smithsonian Astrophysical Observatory,
                          Cambridge, MA 02138, U.S.A.

         Supported in part by the Steven and Michele Kirsch Foundation
             Prepared using the Tamkin Foundation Computer Network

                              MPC@CFA.HARVARD.EDU
          URL http://cfa-www.harvard.edu/iau/mpc.html  ISSN 1523-6714

                                   2004 BH11

Observations:
     K04B11H* C2004 01 18.21890 08 02 27.59 +29 50 48.7          20.1 V EB017691
     K04B11H  C2004 01 18.25160 08 02 21.33 +29 49 05.6          20.3 V EB017691
     K04B11H  C2004 01 18.28401 08 02 15.09 +29 47 22.8          20.1 V EB017691
     K04B11H tC2004 01 19.17362 08 00 00.02 +29 00 50.2                 EB017691
     K04B11H tC2004 01 19.17648 07 59 59.55 +29 00 42.1                 EB017691
     K04B11H tC2004 01 19.17915 07 59 59.09 +29 00 34.4                 EB017691
     K04B11H  C2004 01 19.18977 07 59 55.95 +29 00 01.4          19.7 R EB017649
     K04B11H  C2004 01 19.19332 07 59 55.32 +28 59 50.8          19.9 R EB017649
     K04B11H  C2004 01 19.19688 07 59 54.70 +28 59 40.4          20.0 R EB017649
     K04B11H  C2004 01 19.24361 07 59 47.58 +28 57 28.3          20.0 R EB017448
     K04B11H  C2004 01 19.25178 07 59 46.16 +28 57 05.0          19.5 R EB017448
     K04B11H  C2004 01 19.25990 07 59 44.75 +28 56 40.8          19.7 R EB017448
     K04B11H  C2004 01 19.36300 07 59 26.96 +28 51 32.4          20.0 R EB017651
     K04B11H  C2004 01 19.36471 07 59 26.65 +28 51 27.6          19.8 R EB017651
     K04B11H  C2004 01 19.36596 07 59 26.43 +28 51 24.1          19.8 R EB017651

Observer details:
448 Desert Moon Observatory.  Observer B. L. Stevens.  0.3-m
    Schmidt-Cassegrain + CCD.
649 Powell Observatory, Louisburg.  Observer R. Fredrick.  0.75-m Newtonian
    + CCD.
651 Grasslands Observatory, Tucson.  Observer J. E. McGaha.  0.62-m f/5.1
    Newtonian + CCD.
691 Steward Observatory, Kitt Peak.  Observer M. Block.  0.9-m f/3 reflector
    + CCD.

Orbital elements:
2004 BH11
Epoch 2004 Jan. 16.0 TT = JDT 2453020.5                 MPC
M  47.22079              (2000.0)            P               Q
n   0.69447126     Peri.   82.97542     +0.83837101     -0.54206027
a   1.2628929      Node   309.83061     +0.46589895     +0.76730920
e   0.3261929      Incl.    4.29307     +0.28297036     +0.34264741
P   1.42           H   24.1           G   0.15
From 15 observations 2004 Jan. 18-19.

Ephemeris:
2004 BH11                a,e,i = 1.26, 0.33, 4                   q = 0.8509
Date    TT    R. A. (2000) Decl.     Delta      r     Elong.  Phase     V
2004 01 16    08 09.22   +32 02.5    0.101    1.082   168.1    10.8    20.0
2004 01 26    07 47.85   +24 30.5    0.153    1.135   168.6     9.9    20.9
2004 02 05    07 41.06   +20 40.2    0.215    1.188   158.1    18.1    22.1
2004 02 15    07 41.66   +18 27.9    0.285    1.239   148.4    24.7    23.0

Timothy B. Spahr             (C) Copyright 2004 MPC           M.P.E.C. 2004-B17

Read MPEC 2004-B16 Read MPEC 2004-B18


Our Web policy. Index to the CBAT/MPC/ICQ pages.


Valid HTML 4.01!